Content
SEND FEEDBACK

Daily
Averages
Monthly
Summary
United States of America

LANESBORO, MINNESOTA


Home > North America > United States > Minnesota
Elevation: 253 meters     Latitude: 43 43N     Longitude: 091 58W

WEATHER
 
SELECT A DAY
Number of Records: 293,292;   Date Range: 6/13/02 - 9/20/14
 
SHARE

PRINT THIS DATA

[ ← Previous Day ]
WEATHER ALMANAC - 31 JANUARY, 2013
[ Next Day → ]
[ °F ]   °C
Weather ElementAverageHighLow
Temperature-17.3 °C-12 °C (12:29 am)-22 °C (11:49 pm)
Dewpoint-20.4 °C-14.1 °C (12:29 am)-25.3 °C (11:49 pm)
Humidity77.5 %85 % (12:29 am)72 % (11:49 am)
Barometer1013.9 hPa1022.4 hPa (11:30 pm)1005.4 hPa (12:29 am)
Wind Speed31.2 km/h38.9 km/h (2:09 pm)
Wind Gust48.1 km/h (10:30 am)
Weather ElementAverage
Visibility9.3 km
Wind DirectionWNW (300.8 °)

Weather ElementTotal
Precipitation---
Heating Degree Days35.3 (Base 18.3)
Averaged from 71 records on 31 January, 2013
WEATHER CONDITIONS BREAKOUT
WIND DIRECTION BREAKOUT
WEATHER BY HOUR - 31 JANUARY, 2013
[ °F ]   °C
Local TimeTemperatureDewpointHumidityBarometerVisibilityWind DirectionWind SpeedGust SpeedPrecipitationEventsConditions
12:29 AM-12 °C-14.1 °C85 %1005.4 hPa4.8 kmWNW (290°)31.5 km/hSnowLight Snow
12:50 AM-12.5 °C-14.7 °C84 %1005.8 hPa8 kmWNW (290°)35.2 km/h40.7 km/hOvercast
1:10 AM-12.6 °C-15 °C83 %1006.1 hPa11.3 kmWNW (300°)29.6 km/hOvercast
1:29 AM-12.8 °C-15.2 °C83 %1006.1 hPa8 kmWNW (300°)31.5 km/h40.7 km/hHaze
1:50 AM-13.1 °C-15.5 °C83 %1006.4 hPa11.3 kmWNW (300°)29.6 km/h38.9 km/hOvercast
2:09 AM-13.3 °C-15.7 °C83 %1006.8 hPa11.3 kmWNW (300°)31.5 km/h38.9 km/hOvercast
2:30 AM-13.5 °C-16 °C82 %1007.1 hPa8 kmWNW (300°)29.6 km/hOvercast
2:49 AM-14.1 °C-16.4 °C83 %1007.1 hPa6.4 kmWNW (290°)24.1 km/h33.3 km/hHaze
3:10 AM-14.5 °C-17 °C82 %1007.1 hPa11.3 kmWNW (300°)25.9 km/hOvercast
3:29 AM-14.6 °C-17 °C82 %1007.1 hPa11.3 kmWNW (290°)22.2 km/h33.3 km/hOvercast
3:50 AM-14.8 °C-17.2 °C82 %1007.1 hPa11.3 kmWNW (300°)31.5 km/hOvercast
4:09 AM-15 °C-17.5 °C82 %1007.1 hPa11.3 kmWNW (300°)27.8 km/hOvercast
4:30 AM-15.1 °C-17.6 °C82 %1007.8 hPa11.3 kmWNW (290°)25.9 km/h38.9 km/hOvercast
4:50 AM-15.5 °C-18 °C82 %1007.8 hPa8 kmNW (310°)31.5 km/h42.6 km/hOvercast
5:09 AM-15.5 °C-18 °C82 %1007.8 hPa8 kmWNW (290°)35.2 km/hHaze
5:29 AM-15.8 °C-18.5 °C80 %1008.1 hPa8 kmWNW (300°)27.8 km/hOvercast
5:49 AM-16.1 °C-18.8 °C80 %1008.5 hPa6.4 kmWNW (300°)29.6 km/hHaze
6:09 AM-16.5 °C-19.1 °C81 %1008.8 hPa8 kmWNW (290°)33.3 km/hHaze
6:30 AM-16.7 °C-19.5 °C79 %1009.1 hPa11.3 kmWNW (290°)27.8 km/h40.7 km/hOvercast
6:50 AM-16.8 °C-19.5 °C80 %1009.5 hPa8 kmWNW (290°)29.6 km/h40.7 km/hHaze
7:09 AM-17 °C-19.9 °C79 %1009.8 hPa8 kmWNW (290°)35.2 km/h42.6 km/hHaze
7:30 AM-17.2 °C-20 °C79 %1009.8 hPa6.4 kmWNW (300°)31.5 km/hHaze
7:49 AM-17.3 °C-20 °C80 %1010.2 hPa6.4 kmWNW (300°)25.9 km/hHaze
8:10 AM-17.5 °C-20.3 °C79 %1010.5 hPa8 kmWNW (300°)31.5 km/h40.7 km/hHaze
8:29 AM-17.5 °C-20.5 °C78 %1010.5 hPa8 kmNW (310°)25.9 km/h40.7 km/hHaze
8:50 AM-17.6 °C-20.6 °C78 %1010.8 hPa8 kmWNW (300°)27.8 km/h38.9 km/hHaze
9:15 AM-17.8 °C-21 °C77 %1011.5 hPa6.4 kmNW (310°)35.2 km/h46.3 km/hHaze
9:30 AM-17.5 °C-20.7 °C77 %1011.9 hPa8 kmNW (310°)29.6 km/hHaze
9:50 AM-17.4 °C-20.6 °C77 %1012.2 hPa6.4 kmWNW (300°)25.9 km/hHaze
10:09 AM-17.1 °C-20.5 °C75 %1012.2 hPa6.4 kmNW (310°)35.2 km/h42.6 km/hHaze
10:30 AM-17 °C-20.6 °C74 %1012.5 hPa6.4 kmNW (310°)35.2 km/h48.1 km/hHaze
10:50 AM-17 °C-20.7 °C74 %1012.9 hPa4.8 kmNW (310°)35.2 km/h48.1 km/hHaze
11:10 AM-17 °C-20.6 °C74 %1013.2 hPa4.8 kmNW (310°)35.2 km/hHaze
11:30 AM-16.8 °C-20.5 °C74 %1013.5 hPa6.4 kmWNW (300°)29.6 km/h38.9 km/hHaze
11:49 AM-16.6 °C-20.5 °C72 %1013.5 hPa6.4 kmWNW (300°)35.2 km/h42.6 km/hHaze
12:10 PM-16.6 °C-20.3 °C74 %1013.9 hPa6.4 kmWNW (300°)33.3 km/h40.7 km/hHaze
12:30 PM-16.5 °C-20.5 °C72 %1013.9 hPa6.4 kmNW (310°)25.9 km/h35.2 km/hHaze
12:49 PM-16.6 °C-20.5 °C72 %1014.6 hPa4.8 kmWNW (300°)35.2 km/h46.3 km/hHaze
1:10 PM-16.7 °C-20.4 °C74 %1014.6 hPa6.4 kmWNW (300°)33.3 km/h46.3 km/hHaze
1:29 PM-16.2 °C-20.1 °C73 %1014.6 hPa8 kmWNW (300°)31.5 km/hHaze
1:50 PM-16.7 °C-20.7 °C72 %1014.9 hPa4.8 kmWNW (300°)37 km/hHaze
2:09 PM-17 °C-20.7 °C74 %1015.2 hPa4.8 kmWNW (290°)38.9 km/h46.3 km/hHaze
2:30 PM-16.8 °C-20.7 °C72 %1015.2 hPa6.4 kmWNW (300°)38.9 km/hHaze
2:50 PM-16.9 °C-20.6 °C74 %1015.6 hPa4.8 kmWNW (300°)33.3 km/h44.4 km/hHaze
3:10 PM-17.2 °C-20.6 °C75 %1015.9 hPa4.8 kmWNW (300°)31.5 km/h44.4 km/hHaze
3:29 PM-17.2 °C-20.6 °C75 %1016.3 hPa3.2 kmWNW (300°)37 km/h44.4 km/hHaze
3:50 PM-17.3 °C-20.7 °C75 %1016.6 hPa4.8 kmWNW (300°)33.3 km/h44.4 km/hHaze
4:10 PM-17.5 °C-21.2 °C74 %1016.9 hPa6.4 kmWNW (300°)37 km/h46.3 km/hHaze
4:30 PM-17.5 °C-21 °C75 %1017.3 hPa11.3 kmWNW (300°)31.5 km/h46.3 km/hOvercast
4:49 PM-17.7 °C-21 °C76 %1017.3 hPa4.8 kmWNW (300°)35.2 km/h44.4 km/hHaze
5:10 PM-18.1 °C-21.4 °C76 %1017.6 hPa4.8 kmWNW (300°)35.2 km/h44.4 km/hHaze
5:30 PM-18.3 °C-21.3 °C78 %1018.3 hPa8 kmWNW (300°)35.2 km/h40.7 km/hHaze
5:50 PM-18.5 °C-21.5 °C78 %1018.3 hPa8 kmWNW (300°)31.5 km/h40.7 km/hHaze
6:09 PM-18.6 °C-21.5 °C78 %1018.6 hPa8 kmNW (310°)33.3 km/h40.7 km/hHaze
6:30 PM-19 °C-22 °C78 %1019 hPa8 kmWNW (300°)33.3 km/h42.6 km/hHaze
6:50 PM-19.3 °C-22.5 °C76 %1019.3 hPa8 kmWNW (300°)33.3 km/h46.3 km/hHaze
7:10 PM-19.5 °C-22.6 °C77 %1019.6 hPa16.1 kmNW (310°)29.6 km/hClear
7:30 PM-19.7 °C-23 °C76 %1020 hPa16.1 kmNW (310°)33.3 km/h42.6 km/hClear
7:49 PM-19.8 °C-23 °C76 %1020 hPa16.1 kmNW (310°)31.5 km/h42.6 km/hClear
8:09 PM-20 °C-23.1 °C77 %1020 hPa16.1 kmNW (310°)35.2 km/h44.4 km/hClear
8:29 PM-20.2 °C-23.3 °C77 %1020.3 hPa16.1 kmNW (310°)29.6 km/hClear
8:50 PM-20.4 °C-23.5 °C77 %1021 hPa16.1 kmWNW (300°)27.8 km/h37 km/hClear
9:09 PM-20.6 °C-23.7 °C77 %1021 hPa16.1 kmWNW (300°)29.6 km/hClear
9:30 PM-20.8 °C-24 °C76 %1021.3 hPa16.1 kmNW (310°)25.9 km/h37 km/hClear
9:50 PM-21 °C-24.1 °C77 %1021.7 hPa16.1 kmWNW (300°)27.8 km/h37 km/hClear
10:09 PM-21.2 °C-24.3 °C77 %1021.7 hPa16.1 kmWNW (300°)25.9 km/hClear
10:30 PM-21.4 °C-24.6 °C76 %1021.7 hPa16.1 kmWNW (300°)27.8 km/hClear
10:50 PM-21.6 °C-24.8 °C76 %1021.7 hPa16.1 kmWNW (300°)29.6 km/h38.9 km/hClear
11:10 PM-21.7 °C-25 °C75 %1021.7 hPa16.1 kmNW (310°)25.9 km/hClear
11:30 PM-21.8 °C-25.1 °C75 %1022.4 hPa16.1 kmWNW (300°)31.5 km/hClear
11:49 PM-22 °C-25.3 °C75 %1022.4 hPa16.1 kmWNW (300°)27.8 km/hClear
Hourly data recorded from KFKA, located 0 kilometers away from Lanesboro, Minnesota







STORIES FROM OUR PARTNERS